Pinedale, WY

7:03 AM MDT on August 23, 2017 (GMT -0600)
Wenz

Weather History for KPNA - October, 2012

Change the Weather History Date:

Saturday, October 6, 2012

  Actual Average (KBPI) Record (KBPI)
Temperature  
Mean Temperature 28 °F -  
Max Temperature 42 °F 59 °F 75 °F (1979)
Min Temperature 14 °F 23 °F 6 °F (2000)
Degree Days  
Heating Degree Days 37    
Moisture  
Dew Point 10 °F    
Average Humidity 49    
Maximum Humidity 86    
Minimum Humidity 23    
Precipitation  
Precipitation 0.00 in - - ()
Sea Level Pressure  
Sea Level Pressure 30.23 in    
Wind  
Wind Speed 5 mph (West)    
Max Wind Speed 9 mph    
Max Gust Speed -    
Visibility 10 miles    
Events      
Averages and records for this station are not official NWS values.
T = Trace of Precipitation, MM = Missing Value Source: NWS Daily Summary

Daily Weather History Graph

Daily Weather History Graph

Search for Another Location

Airport or City:

Trip Planner

Search our weather history database for the weather conditions in past years. The results will help you decide how hot, cold, wet, or windy it might be!

Date:

Astronomy

Oct. 06, 2012 Rise Set
Actual Time 7:22 AM MDT 6:50 PM MDT
Civil Twilight 6:54 AM MDT 7:19 PM MDT
Nautical Twilight 6:21 AM MDT 7:51 PM MDT
Astronomical Twilight 5:48 AM MDT 8:24 PM MDT
Moon 11:03 PM MDT (10/6) 1:26 PM MDT (10/6)
Length of Visible Light 12h 24m
Length of Day
11h 28m
Waning Gibbous, 65% of the Moon is Illuminated
Oct 6
Waning Gibbous
Oct 8
Last Quarter
Oct 15
New
Oct 21
First Quarter
Oct 29
Full

Hourly Weather History & Observations

Time (MDT) Temp. Windchill Dew Point Humidity Pressure Visibility Wind Dir Wind Speed Gust Speed Precip Events Conditions
12:15 AM 23.0 °F 13.9 °F 5.0 °F 46% 30.21 in 10.0 mi WNW 8.1 mph - N/A   Clear
12:35 AM 23.0 °F 13.9 °F 6.8 °F 50% 30.21 in 10.0 mi West 8.1 mph - N/A   Clear
12:55 AM 24.8 °F 16.9 °F 8.6 °F 50% 30.21 in 10.0 mi West 6.9 mph - N/A   Clear
1:15 AM 23.0 °F 14.7 °F 8.6 °F 54% 30.20 in 10.0 mi West 6.9 mph - N/A   Clear
1:35 AM 23.0 °F 13.1 °F 12.2 °F 63% 30.21 in 10.0 mi West 9.2 mph - N/A   Clear
1:55 AM 24.8 °F 16.1 °F 12.2 °F 59% 30.21 in 10.0 mi West 8.1 mph - N/A   Clear
2:15 AM 23.0 °F 14.7 °F 12.2 °F 63% 30.22 in 10.0 mi West 6.9 mph - N/A   Clear
2:35 AM 23.0 °F 14.7 °F 12.2 °F 63% 30.22 in 10.0 mi West 6.9 mph - N/A   Scattered Clouds
2:55 AM 24.8 °F 16.9 °F 14.0 °F 64% 30.22 in 10.0 mi West 6.9 mph - N/A   Mostly Cloudy
3:35 AM 23.0 °F 14.7 °F 12.2 °F 63% 30.22 in 10.0 mi WNW 6.9 mph - N/A   Clear
3:55 AM 21.2 °F 13.6 °F 12.2 °F 68% 30.23 in 10.0 mi West 5.8 mph - N/A   Clear
4:35 AM 19.4 °F - 8.6 °F 63% 30.25 in 10.0 mi Calm Calm - N/A   Clear
4:55 AM 21.2 °F - 8.6 °F 58% 30.25 in 10.0 mi Calm Calm - N/A   Clear
5:15 AM 19.4 °F - 8.6 °F 63% 30.26 in 10.0 mi Calm Calm - N/A   Clear
5:55 AM 17.6 °F - 10.4 °F 73% 30.26 in 10.0 mi Calm Calm - N/A   Clear
6:15 AM 15.8 °F - 8.6 °F 73% 30.27 in 10.0 mi Calm Calm - N/A   Clear
6:35 AM 14.0 °F 8.2 °F 8.6 °F 79% 30.28 in 10.0 mi WNW 3.5 mph - N/A   Scattered Clouds
6:55 AM 14.0 °F 8.2 °F 8.6 °F 79% 30.28 in 10.0 mi North 3.5 mph - N/A   Clear
7:15 AM 14.0 °F 8.2 °F 10.4 °F 86% 30.29 in 10.0 mi East 3.5 mph - N/A   Clear
7:35 AM 14.0 °F - 10.4 °F 86% 30.30 in 10.0 mi Calm Calm - N/A   Clear
7:55 AM 14.0 °F 8.2 °F 8.6 °F 79% 30.30 in 10.0 mi West 3.5 mph - N/A   Clear
8:15 AM 17.6 °F - 10.4 °F 73% 30.31 in 10.0 mi Calm Calm - N/A   Clear
8:35 AM 21.2 °F - 10.4 °F 63% 30.31 in 10.0 mi Calm Calm - N/A   Clear
8:55 AM 23.0 °F - 10.4 °F 59% 30.32 in 10.0 mi Calm Calm - N/A   Clear
9:15 AM 23.0 °F - 12.2 °F 63% 30.32 in 10.0 mi Calm Calm - N/A   Clear
9:35 AM 26.6 °F - 14.0 °F 59% 30.32 in 10.0 mi Calm Calm - N/A   Clear
9:55 AM 28.4 °F - 17.6 °F 64% 30.31 in 10.0 mi Calm Calm - N/A   Clear
10:15 AM 30.2 °F 26.7 °F 15.8 °F 55% 30.31 in 10.0 mi WSW 3.5 mph - N/A   Clear
10:35 AM 32.0 °F 27.5 °F 14.0 °F 48% 30.31 in 10.0 mi West 4.6 mph - N/A   Clear
10:55 AM 32.0 °F 27.5 °F 12.2 °F 44% 30.31 in 10.0 mi NNW 4.6 mph - N/A   Clear
11:15 AM 32.0 °F - 12.2 °F 44% 30.30 in 10.0 mi Calm Calm - N/A   Clear
11:35 AM 32.0 °F 26.4 °F 12.2 °F 44% 30.30 in 10.0 mi West 5.8 mph - N/A   Clear
11:55 AM 32.0 °F - 12.2 °F 44% 30.29 in 10.0 mi Calm Calm - N/A   Clear
12:15 PM 33.8 °F - 12.2 °F 41% 30.29 in 10.0 mi Calm Calm - N/A   Clear
12:35 PM 35.6 °F 30.7 °F 12.2 °F 38% 30.27 in 10.0 mi West 5.8 mph - N/A   Clear
12:55 PM 35.6 °F 32.8 °F 10.4 °F 35% 30.27 in 10.0 mi WNW 3.5 mph - N/A   Clear
1:15 PM 35.6 °F 30.7 °F 10.4 °F 35% 30.26 in 10.0 mi South 5.8 mph - N/A   Clear
1:35 PM 35.6 °F 32.8 °F 8.6 °F 33% 30.25 in 10.0 mi WNW 3.5 mph - N/A   Clear
1:55 PM 37.4 °F - 8.6 °F 30% 30.23 in 10.0 mi Calm Calm - N/A   Clear
2:15 PM 37.4 °F - 8.6 °F 30% 30.22 in 10.0 mi Calm Calm - N/A   Clear
2:35 PM 39.2 °F - 8.6 °F 28% 30.22 in 10.0 mi Calm Calm - N/A   Clear
2:55 PM 41.0 °F 36.4 °F 8.6 °F 26% 30.21 in 10.0 mi West 6.9 mph - N/A   Clear
3:15 PM 39.2 °F - 6.8 °F 26% 30.21 in 10.0 mi Calm Calm - N/A   Clear
3:35 PM 41.0 °F 37.1 °F 5.0 °F 23% 30.19 in 10.0 mi West 5.8 mph - N/A   Clear
3:55 PM 42.8 °F 39.3 °F 6.8 °F 23% 30.19 in 10.0 mi West 5.8 mph - N/A   Clear
4:15 PM 41.0 °F 38.0 °F 6.8 °F 24% 30.19 in 10.0 mi SW 4.6 mph - N/A   Clear
4:35 PM 42.8 °F 39.3 °F 8.6 °F 25% 30.18 in 10.0 mi West 5.8 mph - N/A   Clear
4:55 PM 42.8 °F 41.1 °F 8.6 °F 25% 30.18 in 10.0 mi West 3.5 mph - N/A   Clear
5:15 PM 42.8 °F 40.1 °F 8.6 °F 25% 30.17 in 10.0 mi WNW 4.6 mph - N/A   Clear
5:35 PM 42.8 °F - 8.6 °F 25% 30.17 in 10.0 mi Calm Calm - N/A   Clear
5:55 PM 41.0 °F 38.0 °F 8.6 °F 26% 30.17 in 10.0 mi SW 4.6 mph - N/A   Clear
6:15 PM 41.0 °F 37.1 °F 8.6 °F 26% 30.17 in 10.0 mi SSW 5.8 mph - N/A   Clear
6:35 PM 39.2 °F 35.0 °F 8.6 °F 28% 30.17 in 10.0 mi SSW 5.8 mph - N/A   Clear
6:55 PM 37.4 °F 33.8 °F 8.6 °F 30% 30.17 in 10.0 mi SW 4.6 mph - N/A   Clear
7:15 PM 33.8 °F 28.6 °F 8.6 °F 35% 30.17 in 10.0 mi SSW 5.8 mph - N/A   Clear
7:35 PM 33.8 °F 29.6 °F 8.6 °F 35% 30.17 in 10.0 mi SW 4.6 mph - N/A   Clear
7:55 PM 33.8 °F - 10.4 °F 38% 30.18 in 10.0 mi Calm Calm - N/A   Clear
8:15 PM 33.8 °F 29.6 °F 10.4 °F 38% 30.18 in 10.0 mi WSW 4.6 mph - N/A   Clear
8:35 PM 32.0 °F - 8.6 °F 38% 30.19 in 10.0 mi Calm Calm - N/A   Clear
8:55 PM 30.2 °F 23.4 °F 8.6 °F 40% 30.19 in 10.0 mi NNE 6.9 mph - N/A   Clear
9:15 PM 28.4 °F 24.6 °F 8.6 °F 43% 30.19 in 10.0 mi NNE 3.5 mph - N/A   Clear
9:35 PM 26.6 °F 22.6 °F 8.6 °F 47% 30.19 in 10.0 mi WSW 3.5 mph - N/A   Clear
9:55 PM 26.6 °F 22.6 °F 10.4 °F 51% 30.20 in 10.0 mi NNW 3.5 mph - N/A   Clear
10:15 PM 26.6 °F 21.2 °F 10.4 °F 51% 30.19 in 10.0 mi WNW 4.6 mph - N/A   Clear
10:55 PM 23.0 °F - 10.4 °F 59% 30.19 in 10.0 mi Calm Calm - N/A   Clear
11:15 PM 21.2 °F 14.9 °F 10.4 °F 63% 30.19 in 10.0 mi West 4.6 mph - N/A   Clear
11:35 PM 19.4 °F 12.8 °F 12.2 °F 74% 30.19 in 10.0 mi West 4.6 mph - N/A   Clear
11:55 PM 19.4 °F 11.5 °F 10.4 °F 68% 30.19 in 10.0 mi West 5.8 mph - N/A   Clear